Location: ?????????
(44.2517°N, 135.2292°E)
Time: 07:33:54
(UTC+00:00)

Meteor 1-28 Rocket - Pass Details

Date: 19 May 2025
Orbit: 443 x 456 km, 97.6° (Epoch: 15 June)

Event Time Altitude Azimuth Distance (km) Brightness Sun altitude
Rises 18:31:15 0° 174° (S) 2,458 6.3 -9.1°
Reaches altitude 10° 18:33:18 10° 179° (S) 1,592 5.3 -8.8°
Maximum altitude 18:36:40 59° 259° (W) 537 3.0 -8.4°
Drops below altitude 10° 18:40:05 10° 340° (NNW) 1,611 5.9 -7.9°
Sets 18:42:10 0° 344° (NNW) 2,491 7.0 -7.6°
